GW7302 Weather Reports


time (UTC)temp
F
wind
direction
speed
knots
gust
knots
rain 1hr
in
rain 24hr
in
rain mn
in
humidity
%
barometer
mb
20260508161512 62 213 6.1 12.2 0.00 0.00 0.00 46 1014.3
20260508160017 62 256 2.6 10.4 0.00 0.00 0.00 45 1014.4
20260508154518 61 254 5.2 12.2 0.00 0.00 0.00 46 1014.7
20260508153018 62 296 1.7 7.0 0.00 0.00 0.00 53 1014.9
20260508151518 59 309 2.6 7.0 0.00 0.00 0.00 45 1015.0
20260508150022 58 279 2.6 8.7 0.00 0.00 0.00 47 1015.2
20260508144521 59 344 2.6 5.2 0.00 0.00 0.00 53 1015.2
20260508143024 56 261 1.7 7.0 0.00 0.00 0.00 51 1015.3
20260508141522 55 221 2.6 4.3 0.00 0.00 0.00 53 1015.4
20260508140023 55 225 2.6 7.0 0.00 0.00 0.00 54 1015.6
20260508134525 55 251 3.5 6.1 0.00 0.00 0.00 55 1015.7
20260508133024 55 211 3.5 6.1 0.00 0.00 0.00 54 1015.7
20260508131530 55 180 0.9 3.5 0.00 0.00 0.00 61 1015.6
20260508130026 53 286 1.7 2.6 0.00 0.00 0.00 63 1015.6
20260508124525 53 279 0.9 2.6 0.00 0.00 0.00 68 1015.7
20260508123028 52 231 0.9 2.6 0.00 0.00 0.00 74 1015.7
20260508121504 51 302 0.0 2.6 0.00 0.00 0.00 79 1015.7
20260508120010 49 311 0.0 1.7 0.00 0.00 0.00 83 1015.8
20260508114505 46 238 0.0 1.7 0.00 0.00 0.00 92 1015.5
20260508113011 43 342 0.0 1.7 0.00 0.00 0.00 94 1015.5
20260508111508 41 342 0.0 0.0 0.00 0.00 0.00 94 1015.5
20260508110006 39 342 0.0 0.0 0.00 0.00 0.00 93 1015.4
20260508104504 38 342 0.0 0.0 0.00 0.00 0.00 93 1015.2
20260508103007 38 342 0.0 1.7 0.00 0.00 0.00 92 1015.2
20260508101507 37 342 0.0 0.9 0.00 0.00 0.00 92 1015.2
20260508100007 38 342 0.0 0.0 0.00 0.00 0.00 92 1014.9
20260508094509 38 342 0.0 0.0 0.00 0.00 0.00 91 1015.0
20260508093010 38 342 0.0 0.0 0.00 0.00 0.00 91 1014.8
20260508091508 39 342 0.0 0.0 0.00 0.00 0.00 90 1014.6
20260508090012 39 342 0.0 0.0 0.00 0.00 0.00 89 1014.6
20260508084510 40 342 0.0 0.0 0.00 0.00 0.00 88 1014.5
20260508083004 41 342 0.9 1.7 0.00 0.00 0.00 88 1014.4
20260508081506 41 342 0.0 0.9 0.00 0.00 0.00 88 1014.2
20260508080006 42 342 0.0 1.7 0.00 0.00 0.00 86 1014.0
20260508074507 43 342 0.9 1.7 0.00 0.00 0.00 85 1013.9
20260508073011 44 341 0.9 1.7 0.00 0.00 0.00 84 1013.8
20260508071508 44 341 0.9 1.7 0.00 0.00 0.00 82 1013.7
20260508070009 47 283 0.0 1.7 0.00 0.00 0.00 78 1013.5
20260508064517 49 283 0.9 3.5 0.00 0.00 0.00 73 1013.3
20260508063013 50 250 0.9 5.2 0.00 0.01 0.00 71 1013.1
20260508061516 51 290 0.9 8.7 0.00 0.02 0.00 68 1013.0
20260508060016 51 344 2.6 7.8 0.00 0.04 0.00 67 1012.7
20260508054518 51 242 2.6 7.8 0.00 0.05 0.00 68 1012.7
20260508053016 47 233 2.6 7.0 0.00 0.09 0.00 80 1012.6
20260508051527 47 284 0.9 2.6 0.00 0.12 0.00 81 1011.7
20260508050018 48 284 0.0 1.7 0.00 0.13 0.00 80 1011.6
20260508044518 49 277 0.0 3.5 0.00 0.16 0.00 80 1011.6
20260508043021 49 346 0.0 1.7 0.00 0.16 0.00 85 1011.3
20260508041517 49 346 0.0 1.7 0.00 0.17 0.00 83 1011.4
20260508040021 49 346 0.0 0.0 0.00 0.17 0.00 83 1011.0
20260508034518 49 346 0.0 0.9 0.00 0.17 0.17 84 1010.9
20260508033022 50 346 0.0 0.9 0.00 0.17 0.17 83 1010.9
20260508031505 50 346 0.0 1.7 0.00 0.17 0.17 83 1010.9
20260508030006 50 346 0.0 0.0 0.00 0.17 0.17 82 1010.8
20260508024504 50 346 0.0 0.0 0.00 0.17 0.17 81 1010.8
20260508023006 49 346 0.0 0.0 0.00 0.18 0.17 82 1010.9
20260508021508 49 346 0.0 0.0 0.00 0.18 0.17 82 1010.9
20260508020012 50 346 0.0 1.7 0.00 0.18 0.17 81 1010.8
20260508014511 49 346 0.0 1.7 0.00 0.18 0.17 80 1010.6
20260508013012 49 346 0.0 0.0 0.00 0.18 0.17 81 1010.3
20260508011512 49 346 0.0 1.7 0.00 0.18 0.17 79 1010.3
20260508010014 50 346 0.0 0.0 0.00 0.18 0.17 74 1010.2
20260508004513 50 346 0.9 1.7 0.00 0.18 0.17 76 1010.1
20260508003013 50 346 0.0 0.0 0.00 0.18 0.17 75 1010.0
20260508001516 51 346 0.0 0.0 0.00 0.18 0.17 72 1009.8
20260508000014 52 346 0.0 1.7 0.00 0.18 0.17 69 1009.7
20260507234516 54 346 0.0 1.7 0.00 0.18 0.17 67 1009.6
20260507233017 56 346 0.0 2.6 0.00 0.18 0.17 58 1009.4
20260507231516 59 352 0.0 1.7 0.00 0.18 0.17 56 1009.5
20260507230017 62 304 0.9 3.5 0.00 0.18 0.17 41 1009.6
20260507224523 63 340 1.7 3.5 0.00 0.18 0.17 40 1009.4
20260507223020 64 323 1.7 4.3 0.00 0.18 0.17 39 1009.4
20260507221517 62 315 0.0 3.5 0.00 0.18 0.17 39 1009.5
20260507220021 64 274 0.9 7.0 0.00 0.18 0.17 39 1009.5
20260507214523 64 259 3.5 5.2 0.00 0.18 0.17 39 1009.7
20260507213019 64 118 0.0 7.8 0.00 0.18 0.17 35 1009.6
20260507211520 65 246 3.5 11.3 0.00 0.18 0.17 41 1009.6
20260507210026 64 258 1.7 7.8 0.00 0.18 0.17 38 1009.6
20260507204519 64 300 2.6 8.7 0.00 0.18 0.17 38 1009.5
20260507203018 64 55 2.6 7.8 0.00 0.18 0.17 37 1009.4
20260507201520 64 341 2.6 13.0 0.00 0.18 0.17 41 1009.6
20260507200014 64 292 2.6 9.6 0.00 0.18 0.17 36 1009.6
20260507194518 65 178 2.6 7.8 0.00 0.18 0.17 42 1009.7
20260507193016 65 301 4.3 11.3 0.00 0.18 0.17 34 1010.0
20260507191517 65 5 1.7 8.7 0.00 0.18 0.17 38 1010.1
20260507190020 64 237 2.6 6.1 0.00 0.18 0.17 43 1010.2
20260507184520 64 315 5.2 9.6 0.00 0.18 0.17 40 1010.3
20260507183020 64 215 0.9 9.6 0.00 0.18 0.17 41 1010.5
20260507181521 63 313 5.2 12.2 0.00 0.18 0.17 39 1010.7
20260507180023 62 19 2.6 9.6 0.00 0.18 0.17 38 1010.9
20260507174503 62 299 2.6 8.7 0.00 0.18 0.17 42 1011.1
20260507173015 63 276 4.3 12.2 0.00 0.18 0.17 44 1011.2
20260507171507 62 198 0.9 7.0 0.00 0.18 0.17 44 1011.6
20260507170007 62 349 2.6 8.7 0.00 0.18 0.17 46 1012.0
20260507164505 61 18 2.6 7.8 0.00 0.18 0.17 48 1012.1
20260507163008 61 242 2.6 8.7 0.00 0.18 0.17 49 1012.4